User: anonymous   Login
Location: Bonningues
(50.7927°N, 2.0150°E)
Time: 10:24:36
(UTC+00:00)
Language:

Meteor 1-5 Rocket - Orbit

View from above orbital plane
View from above orbital plane
View from above satellite
View from above satellite

Ground track
Ground track

The orbit data is extracted from the following two-line orbital elements,

1  4420U 70047B   20299.87917143 +.00000181 +00000-0 +88968-4 0  9993
2  4420 081.2325 213.2023 0087459 001.4110 358.7292 14.12083823591201
Epoch (UTC): 25 October 2020 21:06:00
Eccentricity: 0.0087459
inclination: 81.2325°
perigee height: 789 km
apogee height: 915 km
right ascension of ascending node: 213.2023°
argument of perigee: 1.4110°
revolutions per day: 14.12083823
mean anomaly at epoch: 358.7292°
orbit number at epoch: 59120

The dashed part of the orbit path shows where the satellite is in the earth's shadow,  

DLR